Date String (YYYY-MM-DD hh:mm:ss) UTC,Instrument flags,Ambient pressure (hPa),Sample flow (lpm),Bypass flow (lpm),Sample temperature (°C),Ambient temperature (°C),ASC tube jacket temperature (°C),LED temperature (°C),Box temperature (°C),Sample RH (%),Span deviation,Mass concentration (μg/m³),Mass concentration (μg/m³),Mass concentration (μg/m³)
DateTimeUTC,F1_M11,P_M11,Q1_M11,Q2_M11,T1_M11,T2_M11,T3_M11,T4_M11,T5_M11,U1_M11,ZSPAN_M11,X0_M11,X2_M11,X1_M11
2021-09-05 07:00:00,,0830.7,5.01,0.00,29.5,28.0,00.0,38.6,31.2,20.9,0001.8,0023.44,0016.71,0015.79
2021-09-05 07:01:00,,0830.6,5.00,0.00,29.5,28.1,00.0,38.6,31.2,20.8,0001.7,0023.31,0016.69,0015.77
2021-09-05 07:02:00,,0830.6,4.99,0.00,29.5,28.2,00.0,38.6,31.2,20.8,0001.9,0022.92,0016.62,0015.75
2021-09-05 07:03:00,,0830.6,5.00,0.00,29.5,28.3,00.0,38.6,31.3,20.8,0001.8,0022.88,0016.63,0015.77
2021-09-05 07:04:00,,0830.6,5.00,0.00,29.6,28.3,00.0,38.6,31.3,20.7,0002.1,0022.30,0016.68,0015.82
2021-09-05 07:05:00,,0830.6,4.99,0.00,29.6,28.4,00.0,38.7,31.3,20.7,0002.1,0021.62,0016.70,0015.82
2021-09-05 07:06:00,,0830.6,5.00,0.00,29.6,28.5,00.0,38.7,31.3,20.6,0001.9,0021.18,0016.71,0015.84
2021-09-05 07:07:00,,0830.6,5.00,0.00,29.6,28.5,00.0,38.7,31.3,20.5,0001.7,0020.91,0016.69,0015.86
2021-09-05 07:08:00,,0830.6,5.00,0.00,29.6,28.5,00.0,38.7,31.4,20.4,0001.6,0021.13,0016.72,0015.87
2021-09-05 07:09:00,,0830.6,4.99,0.00,29.7,28.6,00.0,38.7,31.4,20.3,0001.4,0021.95,0016.79,0015.91
2021-09-05 07:10:00,,0830.6,5.00,0.00,29.7,28.6,00.0,38.7,31.4,20.3,0001.4,0022.00,0016.81,0015.92
2021-09-05 07:11:00,,0830.6,5.00,0.00,29.7,28.6,00.0,38.7,31.4,20.2,0001.4,0022.49,0016.78,0015.93
2021-09-05 07:12:00,,0830.6,5.01,0.00,29.7,28.6,00.0,38.7,31.4,20.2,0001.3,0022.43,0016.75,0015.91
2021-09-05 07:13:00,,0830.6,4.99,0.00,29.7,28.7,00.0,38.8,31.4,20.0,0001.2,0022.58,0016.78,0015.92
2021-09-05 07:14:00,,0830.6,5.00,0.00,29.7,28.7,00.0,38.8,31.4,20.0,0001.2,0022.60,0016.75,0015.90
2021-09-05 07:15:00,,0830.6,5.00,0.00,29.8,28.7,00.0,38.8,31.4,20.0,0001.1,0022.55,0016.72,0015.90
2021-09-05 07:16:00,,0830.6,5.00,0.00,29.8,28.7,00.0,38.8,31.5,19.9,0001.2,0022.71,0016.77,0015.90
2021-09-05 07:17:00,,0830.6,4.99,0.00,29.8,28.7,00.0,38.8,31.5,19.8,0001.3,0023.04,0016.84,0015.94
2021-09-05 07:18:00,,0830.6,5.00,0.00,29.8,28.8,00.0,38.8,31.6,19.8,0001.4,0023.01,0016.86,0015.95
2021-09-05 07:19:00,,0830.6,5.00,0.00,29.8,28.8,00.0,38.9,31.6,19.8,0001.3,0023.24,0016.95,0015.95
2021-09-05 07:20:00,,0830.6,5.00,0.00,29.9,28.8,00.0,38.9,31.6,19.7,0001.5,0022.71,0016.91,0015.89
2021-09-05 07:21:00,,0830.6,5.01,0.00,29.9,28.8,00.0,38.9,31.6,19.4,0001.4,0022.60,0016.84,0015.84
2021-09-05 07:22:00,,0830.6,5.00,0.00,29.9,28.9,00.0,38.9,31.6,19.4,0001.5,0022.31,0016.83,0015.81
2021-09-05 07:23:00,,0830.6,4.98,0.00,29.9,28.9,00.0,38.9,31.7,19.4,0001.7,0022.43,0016.81,0015.80
2021-09-05 07:24:00,,0830.6,5.00,0.00,29.9,28.9,00.0,38.9,31.7,19.0,0002.0,0022.28,0016.75,0015.76
2021-09-05 07:25:00,,0830.6,5.00,0.00,29.9,28.9,00.0,38.9,31.7,18.8,0002.2,0022.37,0016.70,0015.72
2021-09-05 07:26:00,,0830.5,4.99,0.00,29.9,27.6,00.0,38.9,31.4,18.7,0002.1,0022.22,0016.61,0015.66
2021-09-05 07:27:00,,0830.6,5.00,0.00,29.7,26.0,00.0,38.9,31.0,19.1,0002.1,0021.98,0016.56,0015.66
2021-09-05 07:28:00,,0830.5,5.00,0.00,29.6,26.0,00.0,38.9,30.9,19.0,0002.2,0021.75,0016.55,0015.63
2021-09-05 07:29:00,,0830.5,5.00,0.00,29.5,26.4,00.0,38.8,30.9,19.0,0002.3,0021.64,0016.56,0015.61
2021-09-05 07:30:00,,0830.5,5.00,0.00,29.5,26.9,00.0,38.8,31.0,18.8,0002.2,0021.43,0016.41,0015.59
2021-09-05 07:31:00,,0830.6,5.00,0.00,29.5,27.2,00.0,38.7,31.0,18.7,0002.1,0021.56,0016.35,0015.57
2021-09-05 07:32:00,,0830.6,4.99,0.00,29.5,27.5,00.0,38.7,31.1,18.4,0002.0,0021.70,0016.31,0015.52
2021-09-05 07:33:00,,0830.6,5.00,0.00,29.5,27.7,00.0,38.7,31.1,18.2,0002.1,0021.43,0016.23,0015.45
2021-09-05 07:34:00,,0830.6,5.00,0.00,29.5,27.9,00.0,38.7,31.2,18.0,0002.1,0021.35,0016.17,0015.40
2021-09-05 07:35:00,,0830.6,4.97,0.00,29.5,28.0,00.0,38.7,31.2,18.0,0001.9,0021.91,0016.13,0015.35
2021-09-05 07:36:00,,0830.6,5.00,0.00,29.5,28.1,00.0,38.7,31.2,18.1,0001.9,0021.85,0016.10,0015.31
2021-09-05 07:37:00,,0830.6,5.00,0.00,29.6,28.2,00.0,38.7,31.3,18.0,0001.8,0022.37,0016.08,0015.26
2021-09-05 07:38:00,,0830.6,5.01,0.00,29.6,28.3,00.0,38.7,31.3,18.1,0001.7,0022.70,0016.00,0015.15
2021-09-05 07:39:00,,0830.6,5.01,0.00,29.6,28.4,00.0,38.7,31.3,18.0,0001.2,0022.90,0015.88,0015.06
2021-09-05 07:40:00,,0830.6,4.99,0.00,29.6,28.4,00.0,38.7,31.3,18.1,0001.0,0023.68,0015.78,0014.95
2021-09-05 07:41:00,,0830.6,5.00,0.00,29.6,28.5,00.0,38.7,31.3,17.6,0001.1,0023.27,0015.72,0014.88
2021-09-05 07:42:00,,0830.6,5.00,0.00,29.7,28.5,00.0,38.7,31.4,17.5,0001.1,0022.91,0015.70,0014.84
2021-09-05 07:43:00,,0830.6,5.00,0.00,29.7,28.6,00.0,38.7,31.4,17.5,0001.5,0022.76,0015.70,0014.83
2021-09-05 07:44:00,,0830.6,4.99,0.00,29.7,28.6,00.0,38.7,31.4,17.1,0001.1,0022.92,0015.64,0014.81
2021-09-05 07:45:00,,0830.6,5.01,0.00,29.7,28.6,00.0,38.8,31.4,16.8,0000.9,0022.81,0015.64,0014.77
2021-09-05 07:46:00,,0830.6,5.00,0.00,29.7,28.7,00.0,38.8,31.5,16.7,0000.8,0022.54,0015.66,0014.74
2021-09-05 07:47:00,,0830.6,5.00,0.00,29.8,28.7,00.0,38.8,31.5,16.6,0000.8,0022.29,0015.61,0014.69
2021-09-05 07:48:00,,0830.6,5.01,0.00,29.8,28.8,00.0,38.8,31.5,16.9,0001.0,0021.85,0015.56,0014.65
2021-09-05 07:49:00,,0830.6,4.99,0.00,29.8,28.8,00.0,38.8,31.6,18.2,0001.2,0021.24,0015.50,0014.64
2021-09-05 07:50:00,,0830.6,5.00,0.00,29.8,28.8,00.0,38.8,31.6,18.1,0001.4,0021.07,0015.51,0014.64
2021-09-05 07:51:00,,0830.6,5.01,0.00,29.8,28.9,00.0,38.9,31.6,17.9,0001.7,0020.58,0015.52,0014.66
2021-09-05 07:52:00,,0830.6,4.98,0.00,29.8,28.9,00.0,38.9,31.6,17.3,0001.8,0021.12,0015.49,0014.66
2021-09-05 07:53:00,,0830.6,5.00,0.00,29.8,28.9,00.0,38.9,31.6,17.1,0002.0,0020.98,0015.43,0014.64
2021-09-05 07:54:00,,0830.5,5.00,0.00,29.8,28.9,00.0,38.9,31.6,16.8,0001.6,0021.32,0015.41,0014.59
2021-09-05 07:55:00,,0830.5,5.00,0.00,29.8,28.9,00.0,38.9,31.6,16.6,0001.7,0021.26,0015.38,0014.56
2021-09-05 07:56:00,,0830.5,5.01,0.00,29.9,28.9,00.0,38.9,31.6,16.3,0001.6,0021.25,0015.31,0014.53
2021-09-05 07:57:00,,0830.5,5.01,0.00,29.9,28.9,00.0,38.9,31.6,16.6,0001.6,0021.34,0015.24,0014.51
2021-09-05 07:58:00,,0830.5,4.99,0.00,29.9,28.9,00.0,38.9,31.6,16.2,0001.5,0021.37,0015.19,0014.49
2021-09-05 07:59:00,,0830.5,5.00,0.00,29.9,29.0,00.0,39.0,31.6,15.9,0001.3,0021.44,0015.14,0014.44
